User: anonymous   Login
Location: Byhalia Creek
(34.8270°N, 89.8040°W)
Time: 17:08:13
(UTC+00:00)
Language:

SL-8 Rocket - Orbit

View from above orbital plane
View from above orbital plane
View from above satellite
View from above satellite

Ground track
Ground track

The orbit is defined by the following mean orbital elements,

1 21088U          26157.08518081 +.00000000 +00000-0 +37465-4 0 00003
2 21088  82.9417 104.2923 0023148 144.2927 226.8552 13.77505097    04
Epoch (UTC): 06 June 2026 02:02:39
Eccentricity: 0.0023148
inclination: 82.9417°
perigee height: 956 km
apogee height: 990 km
right ascension of ascending node: 104.2923°
argument of perigee: 144.2927°
revolutions per day: 13.77505097
mean anomaly at epoch: 226.8552°

The dashed part of the orbit path shows where the satellite is in the earth's shadow,  

DLR